When you browse on this site, cookies collect data to enhance your experience and personalize the content and advertising you see.
Visit our Privacy Policy to learn more. By continuing to use the site, you agree to this use of cookies and data.
  • In Portugal
  • List of Countries
  • For 7 days
  • Water Temperature
  • Weather Map
  • Weather Widgets
  • user-avatar
    Login

    Hourly Weather Mairena del Aljarafe

    Today, 15 December, Sunday

    Time Temperature Precipitation Wind Pressure Humidity
    00:00 +12°C° 0 mm 1 mps 758 mmHg 78%
    01:00 +11°C° 0 mm 1 mps 758 mmHg 78%
    02:00 +11°C° 0 mm 1 mps 757 mmHg 79%
    03:00 +11°C° 0 mm 1 mps 757 mmHg 80%
    04:00 +11°C° 0 mm 1 mps 757 mmHg 81%
    05:00 +10°C° 0 mm 1 mps 757 mmHg 82%
    06:00 +10°C° 0 mm 1 mps 756 mmHg 83%
    07:00 +11°C° 0 mm 1 mps 756 mmHg 81%
    08:00 +11°C° 0 mm 1 mps 756 mmHg 79%
    09:00 +12°C° 0 mm 2 mps 756 mmHg 77%
    10:00 +13°C° 0 mm 2 mps 756 mmHg 72%
    11:00 +14°C° 0 mm 2 mps 756 mmHg 66%
    12:00 +16°C° 0 mm 2 mps 755 mmHg 61%
    13:00 +16°C° 0 mm 2 mps 755 mmHg 61%
    14:00 +16°C° 0 mm 2 mps 754 mmHg 60%
    15:00 +17°C° 0 mm 2 mps 753 mmHg 60%
    16:00 +16°C° 0 mm 2 mps 753 mmHg 65%
    17:00 +15°C° 0 mm 2 mps 752 mmHg 70%
    18:00 +14°C° 0 mm 3 mps 752 mmHg 74%
    19:00 +14°C° 0 mm 3 mps 752 mmHg 76%
    20:00 +13°C° 0 mm 3 mps 752 mmHg 78%
    21:00 +13°C° 0 mm 4 mps 751 mmHg 80%
    22:00 +13°C° 0 mm 4 mps 751 mmHg 81%
    23:00 +13°C° 0 mm 4 mps 750 mmHg 81%

    Tomorrow, 16 December, Monday

    Time Temperature Precipitation Wind Pressure Humidity
    00:00 +13°C° 0 mm 4 mps 750 mmHg 82%
    01:00 +13°C° 0 mm 5 mps 749 mmHg 82%
    02:00 +13°C° 0 mm 6 mps 748 mmHg 81%
    03:00 +13°C° 0 mm 6 mps 748 mmHg 81%
    04:00 +13°C° 0.1 mm 6 mps 747 mmHg 81%
    05:00 +12°C° 0.1 mm 7 mps 746 mmHg 80%
    06:00 +12°C° 0.1 mm 7 mps 745 mmHg 80%
    07:00 +12°C° 1.4 mm 7 mps 744 mmHg 80%
    08:00 +12°C° 1.4 mm 8 mps 744 mmHg 80%
    09:00 +12°C° 1.4 mm 8 mps 744 mmHg 79%
    10:00 +12°C° 3.6 mm 7 mps 744 mmHg 83%
    11:00 +11°C° 3.6 mm 6 mps 743 mmHg 86%
    12:00 +11°C° 3.6 mm 6 mps 743 mmHg 89%
    13:00 +11°C° 3.4 mm 6 mps 742 mmHg 88%
    14:00 +11°C° 3.4 mm 6 mps 741 mmHg 88%
    15:00 +12°C° 3.4 mm 7 mps 741 mmHg 87%
    16:00 +11°C° 1 mm 7 mps 741 mmHg 85%
    17:00 +11°C° 1 mm 7 mps 741 mmHg 84%
    18:00 +11°C° 1 mm 7 mps 741 mmHg 82%
    19:00 +10°C° 0.4 mm 6 mps 741 mmHg 83%
    20:00 +9°C° 0.4 mm 6 mps 742 mmHg 84%
    21:00 +8°C° 0.4 mm 5 mps 742 mmHg 86%
    22:00 +8°C° 0.3 mm 5 mps 743 mmHg 83%
    23:00 +7°C° 0.3 mm 4 mps 743 mmHg 80%

    Day after tomorrow, 17 December, Tuesday

    Time Temperature Precipitation Wind Pressure Humidity
    00:00 +7°C° 0.3 mm 4 mps 744 mmHg 77%
    01:00 +7°C° 0 mm 4 mps 744 mmHg 79%
    02:00 +6°C° 0 mm 4 mps 745 mmHg 81%
    03:00 +6°C° 0 mm 4 mps 746 mmHg 83%
    04:00 +6°C° 0 mm 4 mps 746 mmHg 84%
    05:00 +6°C° 0 mm 4 mps 747 mmHg 84%
    06:00 +7°C° 0 mm 3 mps 747 mmHg 85%
    07:00 +6°C° 0 mm 4 mps 748 mmHg 83%
    08:00 +6°C° 0 mm 4 mps 749 mmHg 80%
    09:00 +7°C° 0 mm 4 mps 750 mmHg 77%
    10:00 +8°C° 0 mm 5 mps 750 mmHg 70%
    11:00 +10°C° 0 mm 5 mps 750 mmHg 63%
    12:00 +11°C° 0 mm 6 mps 751 mmHg 55%
    13:00 +12°C° 0 mm 5 mps 751 mmHg 54%
    14:00 +13°C° 0 mm 5 mps 751 mmHg 53%
    15:00 +13°C° 0 mm 5 mps 751 mmHg 52%
    16:00 +12°C° 0 mm 4 mps 752 mmHg 57%
    17:00 +11°C° 0 mm 3 mps 753 mmHg 63%
    18:00 +9°C° 0 mm 2 mps 753 mmHg 69%
    19:00 +9°C° 0 mm 2 mps 754 mmHg 71%
    20:00 +9°C° 0 mm 2 mps 754 mmHg 73%
    21:00 +8°C° 0 mm 2 mps 755 mmHg 76%
    22:00 +8°C° 0 mm 2 mps 755 mmHg 77%
    23:00 +8°C° 0 mm 1 mps 755 mmHg 78%

    18 December, Wednesday

    Time Temperature Precipitation Wind Pressure Humidity
    00:00 +8°C° 0 mm 1 mps 756 mmHg 80%
    01:00 +8°C° 0 mm 1 mps 756 mmHg 80%
    02:00 +8°C° 0 mm 1 mps 756 mmHg 80%
    03:00 +8°C° 0 mm 1 mps 755 mmHg 81%
    04:00 +9°C° 0 mm 1 mps 756 mmHg 80%
    05:00 +9°C° 0 mm 1 mps 756 mmHg 79%
    06:00 +8°C° 0 mm 2 mps 756 mmHg 78%
    07:00 +9°C° 0 mm 2 mps 756 mmHg 79%
    08:00 +9°C° 0 mm 2 mps 756 mmHg 81%
    09:00 +9°C° 0 mm 2 mps 756 mmHg 82%
    10:00 +10°C° 0.2 mm 2 mps 756 mmHg 85%
    11:00 +10°C° 0.2 mm 2 mps 756 mmHg 88%
    12:00 +10°C° 0.2 mm 2 mps 756 mmHg 90%
    13:00 +12°C° 0.3 mm 3 mps 756 mmHg 88%
    14:00 +13°C° 0.3 mm 3 mps 755 mmHg 86%
    15:00 +14°C° 0.3 mm 4 mps 755 mmHg 84%
    16:00 +14°C° 0.4 mm 4 mps 755 mmHg 86%
    17:00 +14°C° 0.4 mm 5 mps 755 mmHg 88%
    18:00 +14°C° 0.4 mm 5 mps 755 mmHg 91%
    19:00 +14°C° 0.5 mm 6 mps 755 mmHg 90%
    20:00 +14°C° 0.5 mm 6 mps 754 mmHg 90%
    21:00 +15°C° 0.5 mm 7 mps 754 mmHg 89%
    22:00 +15°C° 1.3 mm 8 mps 754 mmHg 88%
    23:00 +16°C° 1.3 mm 9 mps 754 mmHg 87%

    19 December, Thursday

    Time Temperature Precipitation Wind Pressure Humidity
    00:00 +16°C° 1.3 mm 10 mps 753 mmHg 87%
    01:00 +16°C° 1.4 mm 10 mps 753 mmHg 86%
    02:00 +16°C° 1.4 mm 10 mps 753 mmHg 86%
    03:00 +16°C° 1.4 mm 10 mps 753 mmHg 85%
    04:00 +16°C° 2 mm 10 mps 753 mmHg 85%
    05:00 +15°C° 2 mm 9 mps 753 mmHg 84%
    06:00 +15°C° 2 mm 8 mps 753 mmHg 83%
    07:00 +15°C° 0 mm 7 mps 753 mmHg 84%
    08:00 +15°C° 0 mm 5 mps 754 mmHg 84%
    09:00 +14°C° 0 mm 4 mps 755 mmHg 84%
    10:00 +15°C° 0.1 mm 5 mps 755 mmHg 78%
    11:00 +16°C° 0.1 mm 6 mps 755 mmHg 73%
    12:00 +17°C° 0.1 mm 6 mps 755 mmHg 68%
    13:00 +17°C° 0.1 mm 6 mps 754 mmHg 68%
    14:00 +17°C° 0.1 mm 6 mps 754 mmHg 69%
    15:00 +16°C° 0.1 mm 6 mps 753 mmHg 69%
    16:00 +16°C° 0.1 mm 6 mps 753 mmHg 73%
    17:00 +15°C° 0.1 mm 7 mps 753 mmHg 77%
    18:00 +15°C° 0.1 mm 7 mps 752 mmHg 82%
    19:00 +15°C° 0.2 mm 8 mps 752 mmHg 81%
    20:00 +16°C° 0.2 mm 9 mps 751 mmHg 81%
    21:00 +16°C° 0.2 mm 11 mps 751 mmHg 80%
    22:00 +15°C° 0.2 mm 12 mps 750 mmHg 80%
    23:00 +17°C° 0.2 mm 13 mps 750 mmHg 80%

    20 December, Friday

    Time Temperature Precipitation Wind Pressure Humidity
    00:00 +17°C° 0.2 mm 14 mps 749 mmHg 79%
    01:00 +17°C° 0.5 mm 14 mps 749 mmHg 80%
    02:00 +17°C° 0.5 mm 15 mps 748 mmHg 80%
    03:00 +17°C° 0.5 mm 15 mps 748 mmHg 80%
    04:00 +17°C° 0.8 mm 15 mps 748 mmHg 81%
    05:00 +17°C° 0.8 mm 14 mps 748 mmHg 82%
    06:00 +17°C° 0.8 mm 14 mps 748 mmHg 83%
    07:00 +17°C° 0.8 mm 12 mps 749 mmHg 82%
    08:00 +17°C° 0.8 mm 10 mps 750 mmHg 80%
    09:00 +16°C° 0.8 mm 7 mps 751 mmHg 78%
    10:00 +17°C° 0.1 mm 7 mps 751 mmHg 74%
    11:00 +17°C° 0.1 mm 7 mps 752 mmHg 69%
    12:00 +17°C° 0.1 mm 7 mps 753 mmHg 64%
    13:00 +17°C° 0 mm 7 mps 753 mmHg 64%
    14:00 +17°C° 0 mm 7 mps 753 mmHg 64%
    15:00 +17°C° 0 mm 6 mps 753 mmHg 63%
    16:00 +16°C° 0 mm 5 mps 754 mmHg 67%
    17:00 +15°C° 0 mm 4 mps 754 mmHg 71%
    18:00 +14°C° 0 mm 3 mps 755 mmHg 74%
    19:00 +14°C° 0 mm 3 mps 755 mmHg 77%
    20:00 +14°C° 0 mm 3 mps 756 mmHg 79%
    21:00 +14°C° 0 mm 3 mps 756 mmHg 81%
    22:00 +14°C° 0.1 mm 4 mps 756 mmHg 83%
    23:00 +15°C° 0.1 mm 5 mps 756 mmHg 85%
    Show more